Time,TemperatureF,DewpointF,PressureIn,WindDirection,WindDirectionDegrees,WindSpeedMPH,WindSpeedGustMPH,Humidity,HourlyPrecipIn,Conditions,Clouds,dailyrainin,SolarRadiationWatts/m^2,SoftwareType,DateUTC
2013-05-07 00:00:00,66.2,46.5,29.75,West,270,3.0,0.0,49,0.00,,OVC075,0.00,0.00,VWS V14.00,2013-05-07 04:00:00,
2013-05-07 00:30:00,66.2,46.5,29.76,West,270,3.0,0.0,49,0.00,,OVC075,0.00,0.00,VWS V14.00,2013-05-07 04:30:00,
2013-05-07 01:00:00,66.2,46.5,29.76,West,270,3.0,0.0,49,0.00,,OVC075,0.00,0.00,VWS V14.00,2013-05-07 05:00:00,
2013-05-07 01:30:00,66.2,46.5,29.75,West,270,3.0,0.0,49,0.00,,OVC075,0.00,0.00,VWS V14.00,2013-05-07 05:30:00,
2013-05-07 02:00:00,66.2,46.5,29.73,West,270,3.0,0.0,49,0.00,,OVC075,0.00,0.00,VWS V14.00,2013-05-07 06:00:00,
2013-05-07 02:30:00,66.2,46.5,29.71,West,270,3.0,0.0,49,0.00,,OVC075,0.00,0.00,VWS V14.00,2013-05-07 06:30:00,
2013-05-07 03:00:00,66.2,46.5,29.70,West,270,3.0,0.0,49,0.00,,OVC075,0.00,0.00,VWS V14.00,2013-05-07 07:00:00,
2013-05-07 03:30:00,66.2,46.5,29.70,West,270,3.0,0.0,49,0.00,,OVC075,0.00,0.00,VWS V14.00,2013-05-07 07:30:00,
2013-05-07 04:00:00,66.2,46.5,29.68,West,270,3.0,0.0,49,0.00,,OVC075,0.00,0.00,VWS V14.00,2013-05-07 08:00:00,
2013-05-07 04:30:00,66.2,46.5,29.66,West,270,3.0,0.0,49,0.00,,OVC075,0.00,0.00,VWS V14.00,2013-05-07 08:30:00,
2013-05-07 05:00:00,66.2,46.5,29.66,West,270,3.0,0.0,49,0.00,,OVC075,0.00,0.00,VWS V14.00,2013-05-07 09:00:00,
2013-05-07 05:30:00,66.2,46.5,29.65,West,270,3.0,0.0,49,0.00,,OVC075,0.00,0.00,VWS V14.00,2013-05-07 09:30:00,
2013-05-07 06:00:00,66.2,46.5,29.64,West,270,3.0,0.0,49,0.00,,OVC075,0.00,0.00,VWS V14.00,2013-05-07 10:00:00,
2013-05-07 06:30:00,66.2,46.5,29.64,West,270,3.0,0.0,49,0.00,,OVC075,0.00,0.00,VWS V14.00,2013-05-07 10:30:00,
2013-05-07 07:00:00,66.2,46.5,29.63,West,270,3.0,0.0,49,0.00,,OVC075,0.00,0.00,VWS V14.00,2013-05-07 11:00:00,
2013-05-07 07:30:00,66.2,46.5,29.64,West,270,3.0,0.0,49,0.00,,OVC075,0.00,0.00,VWS V14.00,2013-05-07 11:30:00,
2013-05-07 08:00:00,66.2,46.5,29.64,West,270,3.0,0.0,49,0.00,,OVC075,0.00,0.00,VWS V14.00,2013-05-07 12:00:00,
2013-05-07 08:30:00,66.2,46.5,29.64,West,270,3.0,0.0,49,0.00,,OVC075,0.00,0.00,VWS V14.00,2013-05-07 12:30:00,
2013-05-07 09:00:00,66.2,46.5,29.63,West,270,3.0,0.0,49,0.00,,OVC075,0.00,0.00,VWS V14.00,2013-05-07 13:00:00,
2013-05-07 09:30:00,65.4,60.5,29.63,WNW,292,12.0,25.0,84,0.00,,OVC075,0.00,345.00,VWS V14.00,2013-05-07 13:30:00,
2013-05-07 10:00:00,66.2,60.2,29.62,WNW,292,10.0,23.0,81,0.00,,OVC075,0.00,355.00,VWS V14.00,2013-05-07 14:00:00,
2013-05-07 10:30:00,66.6,60.6,29.62,WNW,292,10.0,23.0,81,0.00,,OVC075,0.00,383.00,VWS V14.00,2013-05-07 14:30:00,
2013-05-07 11:00:00,67.0,59.9,29.62,WNW,292,12.0,25.0,78,0.00,,OVC075,0.00,297.00,VWS V14.00,2013-05-07 15:00:00,
2013-05-07 11:30:00,67.9,60.1,29.61,WNW,292,12.0,24.0,76,0.00,,OVC075,0.00,416.00,VWS V14.00,2013-05-07 15:30:00,
2013-05-07 12:00:00,69.2,60.2,29.61,WNW,292,12.0,25.0,73,0.00,,OVC075,0.00,443.00,VWS V14.00,2013-05-07 16:00:00,
2013-05-07 12:30:00,70.4,58.5,29.61,WNW,292,12.0,29.0,66,0.00,,OVC075,0.00,568.00,VWS V14.00,2013-05-07 16:30:00,
2013-05-07 13:00:00,71.5,57.4,29.60,NW,315,17.0,30.0,61,0.00,,OVC075,0.00,489.00,VWS V14.00,2013-05-07 17:00:00,
2013-05-07 13:30:00,72.6,57.0,29.60,WNW,292,13.0,29.0,58,0.00,,OVC075,0.00,523.00,VWS V14.00,2013-05-07 17:30:00,
2013-05-07 14:00:00,73.4,57.3,29.60,NW,315,14.0,29.0,57,0.00,,OVC075,0.00,593.00,VWS V14.00,2013-05-07 18:00:00,
2013-05-07 14:30:00,73.9,57.2,29.59,NW,315,14.0,27.0,56,0.00,,OVC075,0.00,394.00,VWS V14.00,2013-05-07 18:30:00,
2013-05-07 15:00:00,73.6,56.5,29.58,WNW,292,14.0,28.0,55,0.00,,OVC075,0.00,393.00,VWS V14.00,2013-05-07 19:00:00,
2013-05-07 15:30:00,73.4,59.6,29.58,WNW,292,13.0,26.0,62,0.00,,OVC075,0.00,227.00,VWS V14.00,2013-05-07 19:30:00,
2013-05-07 16:00:00,71.5,60.4,29.58,North,0,11.0,22.0,68,0.00,,OVC075,0.00,156.00,VWS V14.00,2013-05-07 20:00:00,
2013-05-07 16:30:00,68.5,59.5,29.59,North,0,13.0,26.0,73,0.00,,OVC075,0.00,297.00,VWS V14.00,2013-05-07 20:30:00,
2013-05-07 17:00:00,63.6,55.2,29.60,NNE,22,13.0,24.0,74,0.00,,OVC075,0.00,323.00,VWS V14.00,2013-05-07 21:00:00,
2013-05-07 17:30:00,61.8,53.1,29.60,North,0,12.0,24.0,73,0.00,,OVC075,0.00,325.00,VWS V14.00,2013-05-07 21:30:00,
2013-05-07 18:00:00,59.9,51.2,29.60,North,0,11.0,22.0,73,0.00,,OVC075,0.00,145.00,VWS V14.00,2013-05-07 22:00:00,
2013-05-07 18:30:00,58.9,50.6,29.61,NNE,22,12.0,25.0,74,0.00,,OVC075,0.00,96.00,VWS V14.00,2013-05-07 22:30:00,
2013-05-07 19:00:00,57.4,49.5,29.62,NNE,22,11.0,22.0,75,0.00,,OVC075,0.00,59.00,VWS V14.00,2013-05-07 23:00:00,
2013-05-07 19:30:00,55.4,47.3,29.64,NNE,22,11.0,22.0,74,0.00,,OVC075,0.00,73.00,VWS V14.00,2013-05-07 23:30:00,
2013-05-07 20:00:00,53.5,46.1,29.65,NNE,22,11.0,24.0,76,0.00,,OVC075,0.00,37.00,VWS V14.00,2013-05-08 00:00:00,
2013-05-07 20:30:00,51.3,44.7,29.66,NNE,22,13.0,22.0,78,0.00,,OVC075,0.00,2.00,VWS V14.00,2013-05-08 00:30:00,
2013-05-07 21:00:00,49.7,43.8,29.67,NNE,22,12.0,21.0,80,0.00,,OVC075,0.00,0.00,VWS V14.00,2013-05-08 01:00:00,
2013-05-07 21:30:00,48.3,42.8,29.69,NNE,22,11.0,21.0,81,0.00,,OVC075,0.00,0.00,VWS V14.00,2013-05-08 01:30:00,
2013-05-07 22:00:00,47.2,42.0,29.70,NNE,22,11.0,23.0,82,0.00,,OVC075,0.00,0.00,VWS V14.00,2013-05-08 02:00:00,
2013-05-07 22:30:00,46.1,40.9,29.70,NNE,22,12.0,22.0,82,0.00,,OVC075,0.00,0.00,VWS V14.00,2013-05-08 02:30:00,
2013-05-07 23:00:00,46.1,40.9,29.70,NNE,22,12.0,0.0,82,0.00,,OVC075,0.00,0.00,VWS V14.00,2013-05-08 03:00:00,
2013-05-07 23:30:00,46.1,40.9,29.71,NNE,22,12.0,0.0,82,0.00,,OVC075,0.00,0.00,VWS V14.00,2013-05-08 03:30:00,